Weather in Foshan

China     23°05′59″N   113°07′09″E
temp.,
°C
wind,
m/s
gust,
m/s
humid.,
%
clouds,
%
prec.,
mm/h
press.,
hPa
HPBL,
m
25 june, sat
sat2523:00+29ssw3567100 0.0 1007417
02:00+28ssw2473100 0.0 1006311
05:00+27sw2481100 0.0 1006294
08:00+29ssw2473100 0.0 1007585
11:00+33sw3453100 0.0 10071491
14:00+35ssw444293 0.0 10052263
17:00+35s444240 0.0 10042019
20:00+31s565969 0.0 1006824
26 june, sun
sun2623:00+29ssw46675 0.0 1007512
02:00+28ssw37754 0.0 1007575
05:00+27sw24795 0.0 1007347
08:00+29ssw35716 0.1 1009719
11:00+33ssw455135 0.0 10091710
14:00+34ssw664870 0.1 10071917
17:00+34ssw664923 0.0 10061539
20:00+31s67605 0.0 1007880
27 june, mon
mon2723:00+29s47695 0.0 1008751
02:00+28s367585 0.0 1008639
05:00+28s267990 0.0 1008564
08:00+30s4670100 0.0 1009840
11:00+34ssw5751100 0.0 10081805
14:00+34ssw564869 0.2 10061915
17:00+34ssw7749100 0.0 10041657
20:00+31s5761100 0.0 1005897
28 june, tue
tue2823:00+30s4769100 0.0 1007696
02:00+29s3577100 0.1 1006579
05:00+28s258287 1.5 1005371
08:00+30s347498 1.9 1006723
11:00+34s455395 0.1 10051786
14:00+35s5548100 0.6 10031825
17:00+35ssw4448100 0.0 10021902
20:00+32s6758100 0.1 1003797
29 june, wed
wed2923:00+30s4767100 0.0 1004605
02:00+29sse3571100 0.0 1003605
05:00+28sse2576100 0.0 1002386
08:00+29se3472100 0.0 1003829
11:00+33sse3455100 0.1 10031573
14:00+33se3452100 0.1 10011382
17:00+33sse4450100 0.1 10001369
20:00+32sse5759100 0.1 1002761